Preview of NWS' New Version of Forecast
This preview is not operational and should not be used for support decisions.

Regional Weather Roundup (RWR)

Issued by National Weather Service (NWS)

                            
000
ASUS45 KCYS 221310
RWRWY 

WYOMING REGIONAL WEATHER ROUNDUP
NATIONAL WEATHER SERVICE CHEYENNE WY
700 AM MDT WED MAY 22 2019

NOTE:  "FAIR" INDICATES FEW OR NO CLOUDS BELOW 12,000 FEET
WITH NO SIGNIFICANT WEATHER AND/OR OBSTRUCTIONS TO VISIBILITY.

WYZ001-221400-
...YELLOWSTONE NATIONAL PARK...
  
CITY           SKY/WX    TMP DP  RH WIND       PRES   REMARKS
LK YELLOWSTONE NOT AVBL                                               
W YELLOWSTONE  NOT AVBL                                               

$$
WYZ002>013-054>058-071-098>099-221400-
...NORTHERN WYOMING...
  
CITY           SKY/WX    TMP DP  RH WIND       PRES   REMARKS
JACKSON        FLURRIES  33  29  85 NE10      29.75R WCI  25          
CODY           LGT RAIN  35  32  88 N12       29.85R WCI  27          
GREYBULL       CLOUDY    41  33  73 N20G25    29.78R                  
WORLAND        CLOUDY    39  35  86 N9        29.78R WCI  33          
SHERIDAN       RAIN      35  32  88 W18       29.81R FOG     WCI  24  
BUFFALO        LGT SNOW  34  32  92 NW18G30   29.75R FOG     WCI  23  
GILLETTE       LGT SNOW  33  33 100 NW24G31   29.68R FOG     WCI  20  
HULETT         LGT SNOW  34  32  93 MISG      29.64S                  
NEWCASTLE      LGT RAIN  32  32 100 NW17G26   29.60R WCI  21          

$$
WYZ014>020-022>026-101>103-221400-
...CENTRAL WYOMING...
  
CITY           SKY/WX    TMP DP  RH WIND       PRES   REMARKS
BIG PINEY      CLOUDY    30  28  92 SW10      29.73R WCI  21          
PINEDALE       CLOUDY    32  30  93 SW6       29.73R WCI  26          
DUBOIS         CLOUDY    30  28  93 SE5       29.75R WCI  25          
LANDER         LGT SNOW  32  31  96 NW8       29.76S FOG     WCI  25  
RIVERTON       LGT SNOW  32  31  96 NW8       29.77R FOG     WCI  25  
CASPER         LGT SNOW  32  32 100 NW12      29.72R VSB 1   WCI  23  
DOUGLAS        LGT SNOW  32  32 100 NW17      29.68  FOG     WCI  21  

$$
WYZ021-027>030-104>119-221400-
...SOUTHERN WYOMING...
  
CITY           SKY/WX    TMP DP  RH WIND       PRES   REMARKS
EVANSTON       CLOUDY    32  29  88 E15       29.67R WCI  22          
KEMMERER       LGT SNOW  32  30  93 E14       29.71R VSB 3/4 WCI  22  
FORT BRIDGER   NOT AVBL                                               
ROCK SPRINGS   CLOUDY    29  27  92 E9        29.73R FOG     WCI  20  
DIXON          CLOUDY    34  23  65 NE21G26   29.73R WCI  22          
RAWLINS        LGT SNOW  29  26  89 N9        29.74R FOG     WCI  20  
SARATOGA       LGT SNOW  30  30 100 CALM      29.73R                  
LARAMIE        CLOUDY    27  23  85 NW25G31   29.66R WCI  12          
CHEYENNE       PTSUNNY   32  23  69 NW17G26   29.64R WCI  21          
TORRINGTON     CLOUDY    34  33  96 W13       29.62R WCI  25          
PINE BLUFFS    FAIR      32  30  93 NW21G28   29.64R WCI  20          

$$
  

000
ASUS45 KCYS 221310
RWRWY 

WYOMING REGIONAL WEATHER ROUNDUP
NATIONAL WEATHER SERVICE CHEYENNE WY
700 AM MDT WED MAY 22 2019

NOTE:  "FAIR" INDICATES FEW OR NO CLOUDS BELOW 12,000 FEET
WITH NO SIGNIFICANT WEATHER AND/OR OBSTRUCTIONS TO VISIBILITY.

WYZ001-221400-
YELLOWSTONE NATIONAL PARK
  
CITY           SKY/WX    TMP DP  RH WIND       PRES   REMARKS
LK YELLOWSTONE NOT AVBL                                               
W YELLOWSTONE  NOT AVBL                                               

$$
WYZ002>013-054>058-071-098>099-221400-
NORTHERN WYOMING
  
CITY           SKY/WX    TMP DP  RH WIND       PRES   REMARKS
JACKSON        FLURRIES  33  29  85 NE10      29.75R WCI  25          
CODY           LGT RAIN  35  32  88 N12       29.85R WCI  27          
GREYBULL       FAIR      41  33  73 N20G25    29.78R                  
WORLAND        CLOUDY    39  35  86 N9        29.78R WCI  33          
SHERIDAN       RAIN      35  32  88 W18       29.81R FOG     WCI  24  
BUFFALO        LGT SNOW  34  32  92 NW18G30   29.75R FOG     WCI  23  
GILLETTE       LGT SNOW  33  33 100 NW24G31   29.68R FOG     WCI  20  
HULETT         LGT SNOW  34  32  93 MISG      29.64                   
NEWCASTLE      LGT RAIN  32  32 100 NW17G26   29.60  WCI  21          

$$
WYZ014>020-022>026-101>103-221400-
CENTRAL WYOMING
  
CITY           SKY/WX    TMP DP  RH WIND       PRES   REMARKS
BIG PINEY      CLOUDY    30  28  92 SW10      29.73  WCI  21          
PINEDALE       CLOUDY    32  30  93 SW6       29.73  WCI  26          
DUBOIS         CLOUDY    30  28  93 SE5       29.75  WCI  25          
LANDER         LGT SNOW  32  31  96 NW8       29.76S FOG     WCI  25  
RIVERTON       LGT SNOW  32  31  96 NW8       29.77R FOG     WCI  25  
CASPER         LGT SNOW  32  32 100 NW12      29.72R VSB 1   WCI  23  
DOUGLAS        LGT SNOW  32  32 100 NW17      29.68R FOG     WCI  21  

$$
WYZ021-027>030-104>119-221400-
SOUTHERN WYOMING
  
CITY           SKY/WX    TMP DP  RH WIND       PRES   REMARKS
EVANSTON       CLOUDY    32  29  88 E15       29.67R WCI  22          
KEMMERER       LGT SNOW  32  30  93 E14       29.71  VSB 1   WCI  22  
ROCK SPRINGS   CLOUDY    29  27  92 E9        29.73R FOG     WCI  20  
DIXON          CLOUDY    34  23  65 NE21G26   29.73R WCI  22          
RAWLINS        LGT SNOW  29  26  89 N9        29.74R FOG     WCI  20  
SARATOGA       LGT SNOW  30  30 100 CALM      29.73R                  
LARAMIE        CLOUDY    27  23  85 NW25G31   29.66R WCI  12          
CHEYENNE       FAIR      32  23  69 NW17G26   29.64R WCI  21          
TORRINGTON     CLOUDY    34  33  96 W13       29.62R WCI  25          
PINE BLUFFS    FAIR      32  30  93 NW21G28   29.64R WCI  20          

$$